Wind_Speed
61 62 62 62 62 62 61 60 59 57 54 51 48 45 43 41 40 38 35 32 30 30 30 29 27 25 25 26 25 24 23 24 25 28 29 30 30 29 29 28 27 27 27
64 65 66 67 66 66 66 66 65 63 60 57 54 53 50 46 43 41 39 35 32 30 29 28 27 25 25 25 24 22 22 22 24 26 28 29 29 30 29 29 29 29 29
68 69 69 70 70 70 69 68 68 67 65 62 58 56 54 52 48 45 43 39 35 32 30 28 26 25 24 24 23 22 21 21 22 24 26 28 30 30 30 30 31 31 30
77 77 77 77 77 76 75 73 72 71 69 67 64 61 58 56 53 49 46 42 37 34 31 28 26 25 24 23 22 21 20 19 20 22 26 29 30 30 30 31 31 31 30
75 76 78 80 81 82 82 81 79 76 75 72 70 67 65 61 57 53 51 47 42 37 33 29 27 25 24 23 21 21 20 18 19 21 25 28 30 31 31 30 30 30 29
52 53 55 58 62 68 72 77 80 81 81 79 76 72 68 66 63 59 56 52 47 42 36 33 30 27 25 24 22 21 20 19 19 19 21 24 28 31 32 31 30 29 28
35 33 32 32 33 36 41 48 56 64 71 75 75 72 69 65 63 61 58 55 52 48 42 37 33 30 27 25 23 22 20 18 17 17 18 20 23 27 29 28 27 27 26
40 39 38 37 34 33 32 31 31 34 42 50 57 63 65 65 63 59 55 54 52 49 44 39 35 32 30 27 24 22 20 18 17 17 17 18 19 20 22 24 25 23 22
45 45 45 43 41 39 36 33 32 31 30 31 35 43 51 57 61 61 58 55 52 49 45 40 37 35 32 29 27 24 21 20 19 19 18 18 19 21 23 24 23 23 20
48 48 48 47 45 43 40 37 35 34 32 30 30 32 36 45 53 58 59 58 56 51 46 42 39 36 34 32 30 26 23 21 20 20 20 19 20 21 22 23 21 19 17
50 49 48 47 46 44 42 40 38 37 35 33 32 31 32 36 44 53 57 58 56 53 49 45 41 39 36 35 33 29 26 23 21 20 20 19 18 19 21 21 19 17 15
51 49 48 47 46 44 43 41 41 39 37 35 33 32 32 32 36 45 53 55 52 51 50 48 45 42 40 37 35 32 28 25 22 20 19 18 17 18 20 19 17 15 14
51 49 47 46 44 43 42 42 41 40 38 36 34 33 32 31 33 39 49 54 51 49 49 48 46 44 42 39 37 34 30 27 24 21 19 18 18 18 18 17 16 15 15
49 47 45 43 42 40 40 40 39 39 38 36 34 33 32 30 31 35 46 54 52 48 47 47 46 46 43 40 37 34 31 27 24 22 20 19 18 18 18 17 17 16 16
43 41 39 37 36 36 36 35 35 35 34 33 31 31 30 28 27 31 41 53 54 48 47 46 45 43 40 38 36 33 30 27 25 23 21 20 19 19 19 18 18 18 17
34 33 32 31 31 32 32 31 31 31 31 30 30 29 27 24 23 26 35 48 54 48 46 46 43 39 37 35 33 31 29 27 25 23 22 21 21 21 20 19 19 18 17
27 27 27 27 27 27 26 25 25 26 27 28 27 25 23 20 18 19 28 42 50 47 45 43 41 38 35 33 31 29 27 25 24 23 23 23 23 22 20 19 19 18 17
21 21 21 20 20 19 18 19 20 21 23 22 22 21 19 17 16 17 24 36 43 44 43 41 39 36 33 31 29 27 26 25 25 24 25 24 23 22 20 19 18 17 16
17 15 13 10 8 9 12 16 19 21 20 18 18 17 16 16 18 21 25 32 39 39 38 39 37 34 31 30 28 28 27 27 26 25 24 23 22 21 20 18 17 15 15
17 13 9 5 7 13 18 21 22 20 17 16 15 16 18 19 22 26 29 33 35 34 35 35 33 31 30 30 29 29 28 27 26 25 23 22 21 21 19 17 16 15 15
21 19 18 18 19 21 22 22 21 19 17 16 16 18 20 22 27 30 33 34 33 32 31 29 29 30 31 31 30 29 28 27 25 22 21 20 20 19 17 16 15 15 16
22 21 21 21 22 22 21 20 19 18 17 18 19 21 22 26 32 35 35 33 32 30 27 26 27 29 30 30 29 27 25 23 21 19 18 18 18 17 16 15 16 17 18
22 20 19 18 18 19 19 19 18 18 19 20 21 22 25 30 34 35 33 30 28 27 26 25 26 27 28 28 26 24 22 21 19 18 17 17 16 16 16 16 17 18 19
26 21 18 16 16 16 17 18 19 21 22 22 23 26 29 33 34 34 31 28 27 26 25 25 25 24 24 24 22 21 20 18 17 16 16 16 16 16 17 17 18 19 19
33 29 25 20 17 17 19 21 22 23 23 24 25 28 30 32 32 30 28 26 26 26 25 24 23 22 21 20 19 18 16 16 15 15 16 17 17 18 18 19 19 19 20
37 36 33 30 27 25 25 25 25 25 26 26 27 28 30 30 29 27 25 25 25 24 23 22 20 19 17 16 15 14 14 14 14 15 16 17 18 19 19 20 20 20 20
Wind_Direction
277 275 274 273 272 271 270 269 268 268 266 264 264 264 266 266 264 263 264 266 271 275 280 284 290 298 305 310 305 296 286 273 262 255 252 252 252 252 252 253 256 259 261
277 275 273 272 271 270 269 269 268 267 266 265 264 263 263 264 264 262 261 262 266 272 275 279 285 292 301 308 309 300 290 278 265 256 251 249 249 250 252 254 256 260 262
277 275 273 271 270 269 267 267 266 266 266 265 264 263 262 261 262 261 260 259 261 265 270 274 280 287 295 304 307 303 293 281 268 257 249 247 248 251 253 254 257 258 262
278 275 272 270 267 266 265 264 264 263 263 263 263 262 262 260 258 257 257 256 256 260 264 269 276 283 289 298 302 301 294 283 269 259 251 248 249 251 253 254 255 257 257
281 278 274 271 268 265 263 262 261 261 261 262 263 263 262 259 254 252 252 253 253 255 258 264 272 278 283 290 295 296 292 283 271 262 254 251 250 251 251 253 254 253 251
291 289 285 278 272 267 264 262 260 259 259 260 261 261 261 258 253 250 250 250 249 250 254 260 267 273 276 281 287 289 288 281 274 265 257 254 249 246 245 247 246 242 240
299 300 299 295 287 280 273 267 262 259 258 259 259 259 257 255 252 248 248 248 249 250 250 255 262 268 271 273 278 281 281 278 275 266 258 255 248 241 235 233 229 228 230
293 292 291 291 290 286 281 276 272 266 261 258 256 255 254 252 249 247 245 245 245 244 244 249 256 262 266 268 270 274 275 273 269 264 255 248 242 235 228 226 223 221 221
291 289 287 286 286 285 282 277 273 272 269 265 260 254 250 247 245 243 242 242 241 240 240 244 249 254 260 263 264 266 268 268 265 259 255 252 247 242 237 231 225 220 214
291 288 285 284 282 280 278 274 270 269 269 269 267 260 252 244 238 236 235 236 236 236 236 238 241 247 254 258 260 260 261 261 260 256 253 254 248 242 240 234 225 214 209
290 287 284 282 280 277 273 269 267 265 265 266 267 264 256 246 237 230 226 226 228 230 231 232 235 241 247 252 254 254 254 255 254 251 251 250 246 242 238 230 219 209 205
288 285 282 280 278 274 270 267 264 263 261 261 263 264 261 253 242 229 220 216 218 223 226 228 232 236 241 244 247 249 249 248 247 246 247 247 243 238 235 226 215 207 204
287 285 282 278 275 272 268 264 260 259 257 257 257 258 257 254 247 233 218 211 211 215 220 223 225 229 232 236 239 242 243 241 240 239 240 239 237 234 228 218 208 200 198
287 285 282 277 273 269 266 262 258 255 253 252 252 249 250 251 248 236 220 211 207 208 212 217 219 221 224 228 232 234 235 235 234 233 230 230 230 223 215 207 202 199 199
287 285 280 275 272 267 263 260 256 250 246 244 242 241 245 247 244 233 221 211 206 203 204 209 213 215 217 220 224 226 227 229 228 226 225 224 219 211 204 202 203 204 205
289 286 281 276 271 265 260 257 251 242 237 234 232 234 239 240 237 228 217 210 203 199 199 200 204 207 209 212 216 218 221 223 223 220 218 213 205 200 201 205 208 210 212
296 291 285 277 270 263 257 250 239 230 225 221 222 225 228 228 226 219 213 207 203 200 197 196 198 200 203 206 208 211 214 215 214 210 205 199 196 198 203 207 210 214 219
309 301 292 282 270 258 244 227 215 208 204 204 208 212 215 213 203 195 198 199 197 195 195 194 194 196 198 200 202 203 203 202 199 196 193 192 195 200 205 209 213 220 228
334 324 314 297 266 225 199 186 179 176 179 186 194 198 194 186 179 177 180 186 189 190 192 189 189 191 192 192 191 189 188 187 187 187 189 192 197 203 208 213 219 228 238
10 13 23 61 118 138 146 150 152 155 159 166 174 176 170 166 165 165 171 176 180 182 184 184 185 186 183 181 180 180 181 182 183 186 190 196 202 207 212 218 227 238 249
39 49 65 86 105 119 129 135 140 144 149 153 157 157 155 156 157 157 162 167 170 171 172 176 179 179 178 176 176 177 179 182 185 189 196 202 207 211 217 226 237 249 259
53 64 76 88 100 112 121 128 133 137 142 146 147 144 147 149 152 154 157 160 161 163 167 171 174 175 176 175 176 178 182 186 189 194 200 206 211 218 226 236 247 257 266
56 65 76 87 99 111 120 127 131 135 139 141 140 139 140 145 150 153 156 159 161 163 165 167 168 171 174 176 178 182 186 191 196 202 208 215 221 229 237 245 254 262 269
55 62 73 88 103 114 122 127 130 133 134 133 131 132 136 141 146 150 153 156 158 160 161 161 162 166 171 175 180 186 192 199 207 215 221 227 233 239 245 251 258 264 269
58 61 67 82 97 111 120 125 129 130 129 130 130 131 135 140 144 147 149 151 154 156 157 158 159 163 169 176 183 192 201 210 218 226 233 238 242 246 250 255 260 265 270
64 67 73 81 90 102 112 117 121 124 126 128 130 132 136 139 142 145 148 150 151 154 156 158 160 165 171 178 186 195 205 216 225 233 241 246 249 251 254 257 261 265 270
Height
5745 5744 5742 5741 5740 5739 5740 5740 5741 5743 5745 5747 5749 5750 5751 5752 5753 5754 5755 5755 5755 5754 5753 5752 5749 5747 5744 5741 5738 5735 5734 5735 5737 5739 5742 5744 5747 5750 5752 5755 5758 5760 5762
5727 5725 5723 5722 5721 5721 5721 5721 5722 5724 5727 5730 5733 5736 5738 5740 5742 5743 5745 5746 5747 5746 5745 5744 5742 5741 5738 5735 5732 5729 5728 5728 5729 5731 5734 5736 5739 5741 5744 5747 5750 5752 5755
5707 5704 5703 5701 5701 5700 5700 5701 5702 5703 5707 5711 5714 5719 5723 5727 5729 5731 5734 5736 5737 5738 5737 5736 5735 5734 5732 5729 5727 5724 5722 5722 5722 5724 5726 5729 5731 5734 5737 5739 5742 5744 5747
5681 5679 5678 5677 5676 5677 5678 5679 5680 5682 5685 5689 5694 5699 5705 5710 5715 5718 5721 5724 5727 5728 5728 5728 5728 5727 5726 5724 5721 5719 5717 5717 5717 5718 5720 5722 5724 5726 5729 5731 5734 5736 5739
5652 5650 5648 5647 5647 5649 5651 5654 5656 5660 5663 5667 5672 5678 5684 5691 5697 5702 5707 5711 5715 5717 5719 5719 5719 5720 5719 5718 5716 5714 5713 5712 5712 5712 5713 5715 5717 5719 5722 5724 5727 5729 5732
5627 5624 5620 5619 5619 5620 5622 5625 5630 5635 5639 5644 5650 5656 5662 5669 5677 5684 5690 5696 5701 5705 5708 5709 5710 5712 5712 5711 5710 5709 5708 5707 5707 5707 5708 5709 5710 5712 5715 5718 5720 5723 5725
5614 5611 5607 5604 5602 5601 5601 5603 5605 5609 5614 5620 5626 5633 5641 5648 5656 5665 5672 5679 5686 5692 5696 5699 5701 5703 5704 5705 5705 5704 5703 5703 5703 5703 5704 5705 5705 5707 5709 5712 5715 5717 5720
5603 5600 5597 5595 5592 5591 5591 5591 5592 5592 5594 5597 5603 5610 5619 5628 5637 5646 5654 5662 5670 5677 5683 5688 5691 5694 5696 5697 5698 5698 5698 5698 5698 5699 5701 5701 5703 5704 5706 5709 5711 5713 5716
5590 5587 5585 5582 5581 5580 5580 5581 5581 5582 5582 5584 5586 5591 5597 5606 5615 5626 5636 5645 5654 5662 5669 5675 5680 5684 5687 5689 5691 5692 5693 5693 5694 5695 5697 5699 5700 5702 5704 5706 5708 5711 5713
5575 5572 5570 5568 5567 5567 5567 5568 5569 5570 5571 5573 5575 5577 5581 5587 5595 5605 5617 5627 5637 5647 5656 5663 5668 5673 5678 5681 5683 5685 5687 5688 5689 5691 5693 5695 5697 5699 5701 5703 5705 5708 5710
5559 5555 5553 5551 5550 5551 5552 5553 5555 5556 5559 5561 5563 5566 5568 5572 5578 5586 5598 5609 5619 5631 5641 5649 5656 5663 5668 5672 5676 5678 5680 5682 5684 5686 5688 5690 5693 5695 5698 5700 5702 5705 5708
5541 5538 5536 5534 5533 5534 5536 5538 5540 5542 5545 5548 5551 5554 5557 5560 5564 5571 5582 5593 5603 5615 5626 5635 5644 5651 5658 5663 5667 5671 5674 5676 5678 5681 5683 5686 5689 5692 5694 5696 5699 5702 5706
5522 5519 5518 5516 5516 5516 5518 5521 5524 5527 5531 5535 5539 5542 5546 5549 5553 5558 5567 5578 5589 5601 5612 5622 5631 5639 5647 5653 5658 5663 5667 5670 5673 5676 5679 5682 5684 5687 5690 5693 5697 5700 5703
5503 5501 5499 5498 5498 5499 5501 5504 5508 5512 5517 5522 5526 5531 5535 5539 5542 5547 5554 5565 5577 5589 5600 5610 5619 5627 5636 5643 5649 5655 5659 5663 5667 5670 5674 5677 5680 5683 5687 5691 5694 5698 5701
5485 5483 5482 5482 5482 5484 5486 5489 5493 5498 5503 5510 5515 5521 5525 5530 5533 5537 5543 5554 5567 5579 5589 5599 5609 5618 5627 5634 5641 5647 5652 5657 5661 5665 5668 5672 5676 5680 5684 5688 5692 5695 5698
5470 5468 5468 5468 5468 5470 5472 5476 5480 5486 5492 5499 5506 5512 5518 5522 5525 5529 5535 5545 5558 5570 5581 5591 5602 5611 5620 5627 5634 5640 5645 5651 5655 5659 5663 5668 5672 5677 5681 5685 5689 5692 5695
5458 5457 5456 5456 5456 5458 5461 5465 5470 5477 5484 5492 5500 5506 5512 5517 5520 5524 5531 5540 5553 5565 5576 5586 5596 5605 5614 5621 5628 5634 5640 5645 5650 5655 5659 5664 5669 5674 5678 5683 5686 5689 5691
5451 5449 5447 5446 5446 5449 5452 5457 5464 5471 5480 5488 5496 5502 5508 5513 5517 5522 5529 5539 5551 5563 5573 5583 5592 5601 5609 5617 5623 5629 5635 5641 5646 5652 5657 5662 5667 5671 5676 5679 5682 5685 5687
5448 5445 5442 5441 5441 5444 5449 5455 5463 5471 5480 5488 5495 5501 5506 5511 5515 5522 5529 5540 5552 5562 5572 5581 5590 5598 5606 5613 5620 5626 5632 5638 5644 5650 5655 5660 5664 5669 5673 5676 5678 5680 5682
5449 5446 5443 5442 5443 5447 5453 5460 5468 5476 5483 5490 5496 5501 5506 5510 5516 5523 5532 5543 5553 5563 5572 5581 5589 5596 5604 5611 5618 5624 5631 5637 5643 5648 5653 5657 5662 5666 5669 5672 5673 5675 5677
5456 5453 5451 5451 5453 5457 5462 5469 5475 5481 5487 5493 5498 5502 5507 5513 5519 5527 5537 5547 5557 5566 5574 5582 5589 5597 5604 5611 5618 5624 5630 5636 5642 5646 5651 5655 5659 5662 5665 5667 5669 5670 5671
5467 5465 5464 5464 5466 5469 5474 5478 5483 5488 5493 5498 5502 5506 5511 5517 5525 5533 5543 5552 5561 5569 5577 5584 5591 5598 5605 5612 5618 5624 5630 5635 5640 5645 5649 5653 5656 5658 5661 5663 5664 5665 5666
5478 5477 5476 5476 5478 5480 5483 5487 5491 5495 5500 5504 5508 5513 5518 5524 5532 5541 5549 5558 5566 5573 5580 5586 5593 5600 5606 5613 5619 5624 5630 5635 5639 5643 5647 5650 5652 5654 5656 5658 5659 5659 5660
5489 5487 5486 5486 5487 5489 5491 5495 5499 5503 5507 5511 5516 5520 5526 5533 5541 5548 5556 5564 5571 5577 5583 5590 5596 5602 5608 5614 5619 5625 5630 5634 5638 5641 5644 5646 5648 5650 5651 5652 5653 5653 5653
5502 5499 5496 5495 5496 5497 5500 5503 5507 5511 5515 5520 5524 5530 5535 5542 5549 5556 5563 5569 5575 5582 5588 5593 5599 5604 5610 5615 5620 5625 5629 5632 5635 5638 5640 5642 5644 5645 5646 5646 5646 5646 5646
5518 5514 5511 5509 5508 5509 5511 5514 5517 5521 5525 5530 5534 5539 5545 5551 5557 5564 5569 5575 5580 5586 5591 5597 5602 5607 5611 5616 5620 5624 5627 5629 5632 5634 5636 5638 5639 5640 5640 5640 5640 5640 5639